Terminal Aerodrome Forecast
Issued by NWS Portland, OR

Home | Current Version | Previous Version | Text Only | Print | Product List | Glossary On
Versions: 1 2 3 4 5 6 7 8 9 10 11 12 13 14 15 16 17 18 19 20 21 22 23 24 25 26 27 28 29 30 31 32 33 34 35 36 37 38
000
FTUS46 KPQR 271733
TAFSLE
TAF
KSLE 271733Z 2718/2818 18012KT P6SM -RA SCT020 OVC040
     FM272200 18009KT P6SM -SHRA SCT015 BKN025 OVC035
     FM280300 17008KT P6SM -RA SCT012 OVC025
     FM281300 18012G20KT 5SM RA BR SCT012 OVC025=

USA.gov is the U.S. government's official web portal to all federal, state and local government web resources and services.